Visalia, CA

11:47 AM PDT on October 23, 2019 (GMT -0700)
Visalia Municipal

Weather History for KVIS - August, 2019

Change the Weather History Date:

Saturday, August 17, 2019

  Actual Average Record
Temperature  
Mean Temperature 81 °F -  
Max Temperature 99 °F 92 °F 106 °F (1934)
Min Temperature 64 °F 63 °F 52 °F (1954)
Cooling Degree Days 16    
Growing Degree Days 31 (Base 50)    
Moisture  
Dew Point 55 °F    
Average Humidity 43    
Maximum Humidity 65    
Minimum Humidity 24    
Precipitation  
Precipitation 0.00 in - - ()
Sea Level Pressure  
Sea Level Pressure 29.76 in    
Wind  
Wind Speed 5 mph (South)    
Max Wind Speed 10 mph    
Max Gust Speed -    
Visibility 10 miles    
Events      
Averages and records for this station are not official NWS values.
T = Trace of Precipitation, MM = Missing Value Source: NWS Daily Summary

Daily Weather History Graph

Daily Weather History Graph

Search for Another Location

Airport or City:

Astronomy

Aug. 17, 2019 Rise Set
Actual Time 6:17 AM PDT 7:45 PM PDT
Civil Twilight 5:49 AM PDT 8:12 PM PDT
Nautical Twilight 5:17 AM PDT 8:45 PM PDT
Astronomical Twilight 4:42 AM PDT 9:19 PM PDT
Moon 9:18 PM PDT (8/17) 8:08 AM PDT (8/17)
Length of Visible Light 14h 23m
Length of Day
13h 28m
Waning Gibbous, 95% of the Moon is Illuminated
Aug 17
Waning Gibbous
Aug 23
Last Quarter
Aug 30
New
Sep 5
First Quarter
Sep 13
Full

Hourly Weather History & Observations

Time (PDT) Temp. Heat Index Dew Point Humidity Pressure Visibility Wind Dir Wind Speed Gust Speed Precip Events Conditions
12:56 AM 73.0 °F - 55.9 °F 55% 29.77 in 10.0 mi Calm Calm - N/A   Clear
1:56 AM 71.1 °F - 57.0 °F 61% 29.76 in 10.0 mi ESE 4.6 mph - N/A   Clear
2:56 AM 69.1 °F - 55.0 °F 61% 29.76 in 10.0 mi ESE 4.6 mph - N/A   Clear
3:56 AM 68.0 °F - 54.0 °F 61% 29.76 in 10.0 mi East 4.6 mph - N/A   Clear
4:56 AM 66.0 °F - 52.0 °F 60% 29.76 in 10.0 mi SE 6.9 mph - N/A   Clear
5:56 AM 64.0 °F - 52.0 °F 65% 29.77 in 10.0 mi ESE 5.8 mph - N/A   Clear
6:56 AM 64.9 °F - 53.1 °F 65% 29.79 in 10.0 mi SE 5.8 mph - N/A   Clear
7:56 AM 71.1 °F - 53.1 °F 53% 29.80 in 10.0 mi SE 5.8 mph - N/A   Clear
8:56 AM 78.1 °F - 54.0 °F 43% 29.81 in 10.0 mi SE 5.8 mph - N/A   Clear
9:56 AM 82.9 °F 82.0 °F 55.0 °F 38% 29.81 in 10.0 mi SE 5.8 mph - N/A   Clear
10:56 AM 88.0 °F 85.7 °F 53.1 °F 30% 29.81 in 10.0 mi SSW 5.8 mph - N/A   Clear
11:56 AM 90.0 °F 87.9 °F 55.0 °F 30% 29.80 in 10.0 mi SW 6.9 mph - N/A   Clear
12:56 PM 91.9 °F 89.5 °F 54.0 °F 27% 29.79 in 10.0 mi Variable 4.6 mph - N/A   Clear
1:56 PM 95.0 °F 93.0 °F 55.0 °F 26% 29.78 in 10.0 mi Variable 5.8 mph - N/A   Clear
2:56 PM 96.1 °F 93.8 °F 54.0 °F 24% 29.75 in 10.0 mi SSW 5.8 mph - N/A   Clear
3:56 PM 98.1 °F 96.4 °F 55.9 °F 24% 29.73 in 10.0 mi Variable 4.6 mph - N/A   Clear
4:56 PM 98.1 °F 96.4 °F 55.0 °F 24% 29.71 in 10.0 mi West 8.1 mph - N/A   Clear
5:56 PM 97.0 °F 96.1 °F 57.9 °F 27% 29.70 in 10.0 mi West 8.1 mph - N/A   Clear
6:56 PM 96.1 °F 95.2 °F 57.9 °F 28% 29.69 in 10.0 mi WNW 5.8 mph - N/A   Clear
7:56 PM 89.1 °F 88.8 °F 60.1 °F 38% 29.70 in 10.0 mi Calm Calm - N/A   Clear
8:56 PM 84.9 °F 85.4 °F 62.1 °F 46% 29.72 in 10.0 mi WNW 9.2 mph - N/A   Clear
9:56 PM 81.0 °F 81.3 °F 59.0 °F 47% 29.74 in 10.0 mi NW 10.4 mph - N/A   Clear
10:56 PM 77.0 °F - 55.9 °F 48% 29.76 in 10.0 mi NW 9.2 mph - N/A   Clear
11:56 PM 72.0 °F - 55.0 °F 55% 29.78 in 10.0 mi SE 4.6 mph - N/A   Clear